Regional Weather Roundup
Issued by NWS Huntsville, AL

Home | Current Version | Previous Version | Text Only | Print | Product List | Glossary On
Versions: 1 2 3 4 5 6 7 8 9 10 11 12 13 14 15 16 17 18 19 20 21 22 23 24 25 26 27 28 29 30 31 32 33 34 35 36 37 38 39 40 41 42 43 44 45 46 47 48 49 50
000
ASUS44 KHUN 310310
RWRHUN

WEATHER ROUNDUP FOR THE TENNESSEE VALLEY
NATIONAL WEATHER SERVICE HUNTSVILLE AL
1000 PM CDT THU JUL 30 2015

ALZ001>004-310400-
NORTHWEST ALABAMA

CITY           SKY/WX    TMP DP  RH WIND       PRES   REMARKS
COURTLAND HCN    N/A     76  32  19 N3          N/A
RUSSELLVILLE     N/A     70 N/A N/A MISG        N/A
SHOALS AIRPORT CLEAR     77  63  61 N5        30.08R
SHOALS TVA RES   N/A     77 N/A N/A MISG        N/A
$$

ALZ005>007-016-310400-
NORTH CENTRAL ALABAMA

CITY           SKY/WX    TMP DP  RH WIND       PRES   REMARKS
DECATUR AP     CLEAR     74  65  73 N10       30.06R
HUNTSVILLE AP  CLEAR     77  64  64 N6        30.05R
HUN NWS/UAH      N/A     80  56  45 N6          N/A
MERIDIANVILLE  CLEAR     72  55  56 N8        30.06R
VINEMONT AP    FAIR      74  62  67 N5        30.08R
$$

ALZ008>010-310400-
NORTHEAST ALABAMA

CITY           SKY/WX    TMP DP  RH WIND       PRES   REMARKS
ALBERTVILLE    CLEAR     75  68  78 N7        30.04R
FORT PAYNE     CLEAR     75  61  60 E3        30.04R
SCOTTSBORO AP  CLEAR     75  66  73 CALM      30.05R
SCOTTSBORO HCN   N/A     72 N/A N/A MISG        N/A
VALLEY HEAD      N/A     73 N/A N/A MISG        N/A
$$

TNZ076-096-097-310400-
SOUTHEASTERN MIDDLE TENNESSEE

CITY           SKY/WX    TMP DP  RH WIND       PRES   REMARKS
TULLAHOMA      CLEAR     72  61  68 N6        30.10R
WINCHESTER     CLEAR     73  63  68 CALM      30.09R
$$

...SURROUNDING SITES...

CITY           SKY/WX    TMP DP  RH WIND       PRES   REMARKS
ATLANTA        PTCLDY    80  72  76 NW7       29.98R
ANNISTON       CLEAR     84  66  54 VRB6G18   30.00R
BIRMINGHAM     CLEAR     79  64  60 N8        30.04R
CHATTANOOGA    PTCLDY    80  64  58 N13       30.04R
DALTON         CLEAR     77  66  69 N10       30.01R
GADSDEN        CLEAR     81  59  47 N10       30.01R
GOLDEN TRNGL   CLEAR     79  63  57 N8        30.02R
HALEYVILLE     FAIR      73  64  73 N5        30.10R
JACKSON TN     CLEAR     72  63  73 CALM      30.10R
MEMPHIS        PTCLDY    81  63  54 N8        30.09R
NASHVILLE      CLEAR     77  62  59 N6        30.10R
ROME           CLEAR     82  66  58 N10       30.00R
SAVANNAH       CLEAR     70  32  24 CALM      30.09R
TUPELO         CLEAR     75  65  70 NE9       30.05S
TUSCALOOSA     CLEAR     83  67  58 N8        30.01R
$$

...GULF COAST WEATHER...

CITY           SKY/WX    TMP DP  RH WIND       PRES   REMARKS
GULFPORT       LGT RAIN  77  75  93 NW5       29.97R
PASCAGOULA     LGT RAIN  75  74  96 CALM      29.96S
MOBILE         CLOUDY    75  74  96 NW5       29.96F
GULF SHORES    CLOUDY    79  73  81 N3        29.93F
PENSACOLA      CLOUDY    77  73  87 NW5       29.92R
DESTIN         CLOUDY    81  76  84 NE7       29.92F
PANAMA CITY    CLOUDY    79  78  96 NE5       29.94S
APPALACHICOLA  MOCLDY    83  77  82 SW6       29.94S HX  92
$$



USA.gov is the U.S. government's official web portal to all federal, state and local government web resources and services.